649  
ASUS42 KTBW 230610  
RWRFL  
FLORIDA REGIONAL WEATHER ROUNDUP  
NATIONAL WEATHER SERVICE TAMPA BAY RUSKIN FL  
200 AM EDT THU OCT 23 2014  
 
NOTE: "FAIR" INDICATES FEW OR NO CLOUDS BELOW 12,000 FEET WITH NO  
SIGNIFICANT WEATHER AND/OR S TO VISIBILITY
.  
 
 
FLZ001>010-012>015-112-114-115-230700-  
PANHANDLE FLORIDA  
 
CITY SKY/WX TMP DP RH WIND PRES REMARKS
 
PENSACOLA CLEAR 59 46 62 NE7 30.05F  
PENSACOLA NAS CLEAR 56 46 69 N3 30.05F  
MILTON NAS CLEAR 48 43 82 N5 30.06F  
CRESTVIEW CLEAR 46 44 93 CALM 30.08S  
DUKE FIELD FAIR 48 43 85 CALM 30.07S  
VALPARAISO CLEAR 51 44 77 NW3 30.06F  
MARY ESTHER CLEAR 51 42 71 N8 30.05F  
PANAMA CITY FAIR 52 44 74 N3 30.04F  
TYNDALL AFB CLEAR 59 49 68 NE5 30.04F  
APALACHICOLA CLEAR 59 48 67 NE6 30.03F  
 
STATION/POSITION SKY/WX TEMP WIND PRES WAVE SWELL
 
AIR SEA DIR/SP/G HT/PER HT/PER  
(F) (DEG/KT/KT) (MB) (FT/S) (FT/S)  
30.1N 87.6W 69 78 40/ 16/ 19 1016.9F 3/ 5  
29.2N 88.2W 73 79 50/ 17/ 21 1016.9F 4/ 5  
28.8N 86.0W 74 80 40/ 17/ 21 1015.3F 4/ 5  
PANAMA CITY BEAC 60 77 20/ 4/ 5 1017.3F  
CAPE SAN BLAS NOT AVBL  
TOWER C 70 40/ 22/ 24 1015.8F  
28.5N 84.5W 75 81 60/ 16/ 19 1014.9F 3/ 5  
 

 
FLZ011-016>038-118-127-128-134-139-239-230700-  
NORTH FLORIDA  
 
CITY SKY/WX TMP DP RH WIND PRES REMARKS
 
MARIANNA LGT RAIN 51 48 89 CALM 30.06F  
TALLAHASSEE CLEAR 57 46 66 N3 30.05F  
PERRY CLEAR 54 48 82 CALM 30.05F  
CROSS CITY N/A 51 49 92 CALM 30.02F  
LAKE CITY FAIR 48 48 100 CALM 30.04F  
GAINESVILLE CLEAR 57 51 80 N9 30.03S  
MAYPORT NAS CLEAR 63 52 67 NW5 30.03F  
JACKSONVILLE PTCLDY 52 49 89 CALM 30.04S  
JAX NAS PTCLDY 68 50 52 N13 30.04F  
JAX CRAIG CLEAR 61 47 59 N6 30.03F  
JAX CECIL CLEAR 48 48 100 CALM 30.04F  
FERNANDINA BEA FAIR 64 52 63 N6 30.03S  
ST AUGUSTINE PTCLDY 58 52 80 NW7 30.03S  
 
STATION/POSITION SKY/WX TEMP WIND PRES WAVE SWELL
 
AIR SEA DIR/SP/G HT/PER HT/PER  
(F) (DEG/KT/KT) (MB) (FT/S) (FT/S)  
SHELL POINT 61 20/ 6/ 10 N/A  
KEATON BEACH 55 30/ 5/ 7 1016.9F  
CEDAR KEY 63 50/ 11/ 14 1016.6F  
FERNANDINA 66 75 10/ 9/ 11 1016.5F  
30.7N 81.3W 76 N/A 3/ 7  
MAYPORT 63 76 340/ 7/ 9 N/A  
31.4N 80.9W 67 75 20/ 12/ 16 1017.3F 2/ 4 2/10  
ST AUGUSTINE 69 20/ 12/ 14 1017.0F  
 

 
FLZ040-043>046-052-053-057-058-063-144-230700-  
INTERIOR CENTRAL FLORIDA  
 
CITY SKY/WX TMP DP RH WIND PRES REMARKS
 
OCALA PTCLDY 59 52 77 NE3 30.02S  
THE VILLAGES N/A 63 54 72 N6 29.91F  
LEESBURG MOCLDY 63 54 72 NE7 30.02S  
SANFORD CLOUDY 65 57 75 N6 30.00S  
ORLANDO EXEC MOCLDY 67 57 70 N5 29.99F  
ORLANDO INTL MOCLDY 66 57 72 N9 29.99F  
WINTER HAVEN MOCLDY 66 59 78 NE8 29.99F  
LAKELAND PTCLDY 64 59 82 N8 29.98F  
BARTOW FAIR 66 57 72 NE12 29.98F  
OKEECHOBEE N/A 68 64 88 MISG 29.95  
 

 
FLZ041-047-054-059-064-141-147-230700-  
EAST CENTRAL FLORIDA  
 
CITY SKY/WX TMP DP RH WIND PRES REMARKS
 
DAYTONA BEACH MOCLDY 68 55 63 NE14 30.00F  
DELAND CLOUDY 63 54 72 N6 30.01F  
JFK SPACE CTR MOCLDY 69 57 64 NE8 29.98S  
CAPE CANAVERAL MOCLDY 71 58 63 N9 29.97S  
PATRICK AFB MOCLDY 73 61 66 N15 29.96F  
MELBOURNE CLOUDY 74 62 66 NE13 29.95F  
VERO BEACH CLOUDY 73 64 73 N8 29.94F  
FT PIERCE CLOUDY 74 64 71 N5 29.93F  
STUART CLOUDY 75 64 69 NE7 29.94S  
 
STATION/POSITION SKY/WX TEMP WIND PRES WAVE SWELL
 
AIR SEA DIR/SP/G HT/PER HT/PER  
(F) (DEG/KT/KT) (MB) (FT/S) (FT/S)  
28.5N 80.2W 74 82 40/ 14/ 17 1014.9S  
28.9N 78.5W 73 81 10/ 12/ 16 1014.8F 4/ 6 3/ 6  
TRIDENT PIER 69 80 10/ 5/ 7 1014.5F  
28.4N 80.5W 80 N/A 2/10  
27.6N 80.2W 80 N/A 3/ 4  
 

 
FLZ050-056-061-142-242-148-248-149-249-151-251-155-255-  
160-260-230700-  
WEST CENTRAL FLORIDA  
 
CITY SKY/WX TMP DP RH WIND PRES REMARKS
 
CRYSTAL RIVER FAIR 59 54 82 E3 30.01S  
INVERNESS FAIR 59 54 82 CALM 30.02S  
BROOKSVILLE PTCLDY 63 56 78 NE8 30.01S  
ZEPHYRHILLS FAIR 61 57 88 NE8 30.00F  
CLEARWATER PTCLDY 69 61 75 NE13 29.97F  
TAMPA INTL PTCLDY 67 58 72 NE8 29.98F  
TAMPA EXEC CLEAR 64 61 88 NE3 29.99S  
PLANT CITY PTCLDY 66 61 82 NE7 30.00F  
MACDILL AFB PTCLDY 67 62 86 E13 29.97F  
ST PETERSBURG PTCLDY 72 64 76 NE18 29.96F  
SARASOTA MOCLDY 69 63 81 NE10 29.94S  
VENICE N/A 70 64 83 MISG 29.95S  
 
STATION/POSITION SKY/WX TEMP WIND PRES WAVE SWELL
 
AIR SEA DIR/SP/G HT/PER HT/PER  
(F) (DEG/KT/KT) (MB) (FT/S) (FT/S)  
CEDAR KEY 63 50/ 11/ 14 1016.6F  
28.5N 84.5W 75 81 60/ 16/ 19 1014.9F 3/ 5  
27.3N 84.3W 81 N/A 4/ 5  
CLEARWATER BEACH NOT AVBL  
MIDDLE TAMPA BAY 71 80/ 18/ 21 1014.8S  
VENICE 70 80 50/ 9/ 13 1013.5F  
 

 
FLZ066-069-070-075>078-162-262-165-265-230700-  
SOUTHWEST FLORIDA AND KEYS  
 
CITY SKY/WX TMP DP RH WIND PRES REMARKS
 
PUNTA GORDA MOCLDY 70 65 84 NE8 29.96F  
FT MYERS CLOUDY 73 66 78 E12 29.92F  
SOUTHWEST INTL CLOUDY 72 66 81 NE8 29.94S  
NAPLES CLOUDY 75 72 90 E7 29.91F  
MARATHON LGT RAIN 75 74 96 E7 29.90F  
KEY WEST NAS CLOUDY 74 72 93 NE7 29.89F  
KEY WEST INTL LGT RAIN 74 73 97 NE8 29.90F VSB 1/4  
 
STATION/POSITION SKY/WX TEMP WIND PRES WAVE SWELL
 
AIR SEA DIR/SP/G HT/PER HT/PER  
(F) (DEG/KT/KT) (MB) (FT/S) (FT/S)  
VENICE 70 80 50/ 9/ 13 1013.5F  
NAPLES 74 83 90/ 4/ 6 1013.7F  
26.0N 85.6W 77 82 50/ 16/ 19 1012.9F 5/ 7 2/13  
DRY TORTUGAS 78 110/ 20/ 22 1012.0F  
NW FL BAY 76 70/ 8/ 9 1013.9S  
SAND KEY 77 80/ 18/ 21 1012.2F  
SOMBRERO KEY 76 90/ 16/ 17 1012.8F  
LONG KEY 77 79 90/ 11/ 12 1013.5F  
MOLASSES REEF 78 83 90/ 8/ 10 1013.0F  
 

 
FLZ067-068-071>074-168-172>174-230700-  
SOUTHEAST FLORIDA  
 
CITY SKY/WX TMP DP RH WIND PRES REMARKS
 
W PALM BEACH CLOUDY 77 69 76 N6 29.90F  
FT LAUDER-EXEC CLOUDY 75 72 90 CALM 29.91F  
FT LAUDERDALE CLOUDY 76 73 91 SW5 29.91F  
POMPANO BEACH CLOUDY 76 74 93 W5 29.91F  
PEMBROKE PINES CLOUDY 75 72 90 SE3 29.93F  
OPA LOCKA CLOUDY 75 73 93 CALM 29.92F  
MIAMI CLOUDY 75 73 93 CALM 29.92F  
WEST KENDALL LGT RAIN 76 73 91 CALM 29.92F  
HOMESTEAD CLOUDY 74 73 96 S2 29.92F  
 
STATION/POSITION SKY/WX TEMP WIND PRES WAVE SWELL
 
AIR SEA DIR/SP/G HT/PER HT/PER  
(F) (DEG/KT/KT) (MB) (FT/S) (FT/S)  
PORT EVERGLADES 77 210/ 3/ 4 1012.7  
VIRGINIA KEY 78 81 160/ 4/ 4 1013.2F  
LAKE WORTH 79 83 40/ 11/ 12 1012.5F  
FOWEY ROCKS 78 80 120/ 9/ 10 1013.0F  
SETTLEMENT POINT 79 70/ 12/ 13 1013.4F  
 

 
 
CLICK HERE TO GO TO PREVIOUS BULLETINS.

The Nexlab FL Page Main Text Page